Regional Weather Roundup
Issued by NWS Little Rock, AR

Home | Current Version | Previous Version | Text Only | Print | Product List | Glossary Off
Versions: 1 2 3 4 5 6 7 8 9 10 11 12 13 14 15 16 17 18 19 20 21 22 23 24 25 26 27 28 29 30 31 32

000
ASUS44 KLZK 241605
RWRLZK

WEATHER ROUNDUP FOR ARKANSAS
NATIONAL WEATHER SERVICE LITTLE ROCK AR
1000 AM CST SAT FEB 24 2018

NOTE: "FAIR" INDICATES FEW OR NO CLOUDS BELOW 12,000 FEET WITH NO
SIGNIFICANT WEATHER AND/OR OBSTRUCTIONS TO VISIBILITY.

ARZ001-003-010-029-241700-
NORTHWEST ARKANSAS

CITY           SKY/WX    TMP DP  RH WIND       PRES   REMARKS
FAYETTEVILLE   CLOUDY    56  56 100 CALM      29.80F
FORT SMITH     LGT RAIN  55  55 100 NE7       29.82F
HARRISON       FOG       50  50 100 SE8       29.88F VSB<1/4
BENTONVILLE    TSTM      54  54 100 SE10      29.82F FOG
ROGERS         TSTM      52  52 100 E8        29.80F FOG
SILOAM SPGS    HVY RAIN  53  53 100 VRB3      29.80F FOG
HIGHFILL       LGT RAIN  54  54 100 SE7       29.80F FOG
$$

ARZ004-005-016-241700-
NORTH CENTRAL ARKANSAS

CITY           SKY/WX    TMP DP  RH WIND       PRES   REMARKS
BATESVILLE     FOG       61  61 100 SE3       29.92F VSB 3/4
FLIPPIN        CLOUDY    52  51  97 SE7       29.90F FOG
MTN HOME       CLOUDY    51  51 100 SE7       29.89F FOG
$$

ARZ040-041-241700-
WEST CENTRAL ARKANSAS

CITY           SKY/WX    TMP DP  RH WIND       PRES   REMARKS
MENA           CLOUDY   N/A N/A N/A CALM      29.84F THUNDER
MOUNT IDA      CLOUDY    65  65 100 SE3       29.82F
$$

ARZ009-017-025-026-028-241700-
NORTHEAST ARKANSAS

CITY           SKY/WX    TMP DP  RH WIND       PRES   REMARKS
JONESBORO      CLOUDY    64  64 100 S5        29.94F
NEWPORT        LGT RAIN  61  61 100 S5        29.93F VSB 1/4
WALNUT RIDGE   FOG       55  55 100 N3        29.94F VSB 1/4
BLYTHEVILLE    CLOUDY    68  64  87 S12       29.96F
$$

ARZ022-023-033-042-044-241700-
CENTRAL ARKANSAS

CITY           SKY/WX    TMP DP  RH WIND       PRES   REMARKS
LITTLE ROCK    CLOUDY    63  63 100 SE6       29.90F FOG
N LITTLE ROCK    N/A     62  62 100 CALM      29.88F
JACKSONVILLE   CLOUDY    64  64 100 SE3       29.89F FOG
SEARCY         FOG       60  32  34 CALM      29.92F VSB 1/4
HOT SPRINGS    RAIN      64  64 100 CALM      29.87F VSB 1
RUSSELLVILLE   CLOUDY    55  55 100 NW5       29.86F FOG
CLINTON        FOG       54  54 100 NW3       29.91F VSB<1/4
$$

ARZ036-241700-
EAST ARKANSAS

CITY           SKY/WX    TMP DP  RH WIND       PRES   REMARKS
WEST MEMPHIS   CLOUDY    67  67 100 S17       29.95F
$$

ARZ050-053-066-070-073-241700-
SOUTHWEST ARKANSAS

CITY           SKY/WX    TMP DP  RH WIND       PRES   REMARKS
ARKADELPHIA    RAIN      60  60 100 SE5       29.88F VSB 1/2
CAMDEN         DRIZZLE   68  64  88 S12G23    29.92S
TEXARKANA      CLOUDY    69  67  93 S15G24    29.86F
EL DORADO      CLOUDY    69  69 100 S12       29.94S
DE QUEEN       LGT RAIN  66  66 100 S9        29.82F FOG
$$

ARZ056-057-069-241700-
SOUTHEAST ARKANSAS

CITY           SKY/WX    TMP DP  RH WIND       PRES   REMARKS
PINE BLUFF     CLOUDY    69  66  90 S12       29.92F
STUTTGART      CLOUDY    67  66  97 S12       29.93F
MONTICELLO     CLOUDY    70  67  90 S12G18    29.94F

$$






USA.gov is the U.S. government's official web portal to all federal, state and local government web resources and services.